Simultaneous Nadir Overpasses (SNOs) Predictions

Prediction of SNOs between GOES-17 and TERRA Satellite Orbit:

Table of predicted SNOs for the next 14.0 days since TLE Epoch: 5/13/2023
Index Date Time (GOES-17) GOES-17 Lat,Lon TERRA Lat,Lon Distance(km) Time Diff (sec)
1 05/13/2023 05:03:58 0.01,-104.70 0.01,-104.58 13.72 80
2 05/15/2023 04:47:43 0.01,-104.70 0.87,-100.66 460.41 80
3 05/15/2023 17:07:55 -0.01,-104.75 0.19,-105.56 93.21 80
4 05/17/2023 16:54:19 -0.01,-104.75 -0.64,-101.63 354.40 80
5 05/18/2023 05:14:41 0.01,-104.72 -0.36,-106.59 211.57 80
6 05/20/2023 04:55:44 0.00,-104.73 0.43,-102.65 235.96 80
7 05/20/2023 17:15:56 0.00,-104.76 0.60,-107.56 317.87 80
8 05/22/2023 17:02:19 0.01,-104.77 -0.22,-103.62 129.96 80
9 05/23/2023 05:22:39 -0.01,-104.74 -0.83,-108.57 435.51 80
10 05/25/2023 05:03:42 -0.00,-104.74 0.02,-104.64 12.26 80
